2024-02-07T17:08:04Z,sbox02,2677.97,5.2,2624.73,5.3,2655.87,5.5,24-02-07T17:07:56,102
2024-02-07T17:18:04Z,sbox02,2676.67,5.1,2625.96,5.2,2655.95,5.4,24-02-07T17:17:56,103
2024-02-07T17:38:04Z,sbox02,2677.35,5.1,2626.11,5.2,2656.15,5.4,24-02-07T17:37:56,105
2024-02-07T18:38:05Z,sbox02,2677.76,4.8,2625.18,4.9,2656.41,5.1,24-02-07T18:37:57,111
2024-02-07T18:48:05Z,sbox02,2678.34,4.7,2625.31,4.9,2656.58,5.1,24-02-07T18:47:57,112
2024-02-07T18:58:05Z,sbox02,2678.56,4.7,2624.99,4.9,2656.56,5.1,24-02-07T18:57:57,113
2024-02-07T19:08:05Z,sbox02,2678.26,4.7,2625.72,4.9,2656.37,5.0,24-02-07T19:07:57,114
2024-02-07T19:28:05Z,sbox02,2677.39,4.6,2626.48,4.7,2657.04,5.0,24-02-07T19:27:57,116
2024-02-07T19:38:05Z,sbox02,2677.78,4.6,2626.06,4.7,2657.38,4.9,24-02-07T19:37:57,117
2024-02-07T19:58:05Z,sbox02,2678.94,4.6,2626.75,4.7,2657.32,4.9,24-02-07T19:57:57,119
2024-02-07T20:08:05Z,sbox02,2678.42,4.6,2626.76,4.7,2657.50,4.9,24-02-07T20:07:57,120
2024-02-07T20:18:05Z,sbox02,2679.66,4.6,2626.77,4.7,2657.36,4.9,24-02-07T20:17:57,121
2024-02-07T20:28:05Z,sbox02,2679.44,4.6,2626.93,4.7,2657.56,4.9,24-02-07T20:27:57,122
2024-02-07T20:38:06Z,sbox02,2677.82,4.6,2627.35,4.7,2657.91,4.9,24-02-07T20:37:57,123
2024-02-07T20:48:06Z,sbox02,2678.94,4.6,2626.63,4.7,2658.78,4.9,24-02-07T20:47:57,124
2024-02-07T20:58:06Z,sbox02,2679.19,4.6,2627.49,4.7,2658.39,4.9,24-02-07T20:57:57,125
2024-02-07T21:08:06Z,sbox02,2679.41,4.6,2627.26,4.7,2658.54,4.8,24-02-07T21:07:58,126
2024-02-07T21:18:06Z,sbox02,2677.65,4.5,2626.95,4.7,2658.74,4.8,24-02-07T21:17:58,127
2024-02-07T21:28:06Z,sbox02,2678.05,4.5,2627.32,4.7,2658.41,4.8,24-02-07T21:27:58,128
2024-02-07T21:38:06Z,sbox02,2678.60,4.5,2626.75,4.7,2659.05,4.8,24-02-07T21:37:58,129
2024-02-07T21:48:06Z,sbox02,2677.40,4.4,2626.91,4.6,2658.60,4.7,24-02-07T21:47:58,130
2024-02-07T22:08:06Z,sbox02,2678.59,4.3,2626.83,4.5,2658.74,4.6,24-02-07T22:07:58,132
2024-02-07T22:18:06Z,sbox02,2676.64,4.3,2627.12,4.4,2658.42,4.5,24-02-07T22:17:58,133
2024-02-07T22:28:06Z,sbox02,2676.07,4.3,2626.29,4.5,2658.53,4.5,24-02-07T22:27:58,134
2024-02-07T22:38:06Z,sbox02,2676.73,4.3,2626.32,4.5,2658.45,4.6,24-02-07T22:37:58,135
2024-02-07T22:48:06Z,sbox02,2677.93,4.4,2626.79,4.6,2658.39,4.6,24-02-07T22:47:58,136
2024-02-07T22:58:06Z,sbox02,2676.73,4.4,2626.09,4.6,2658.29,4.6,24-02-07T22:57:58,137
2024-02-07T23:08:07Z,sbox02,2677.89,4.4,2625.85,4.7,2658.41,4.6,24-02-07T23:07:58,138
2024-02-07T23:28:07Z,sbox02,2677.57,4.4,2626.24,4.6,2658.32,4.5,24-02-07T23:27:58,140
2024-02-07T23:48:07Z,sbox02,2676.79,4.4,2626.26,4.6,2658.78,4.5,24-02-07T23:47:59,142
2024-02-07T23:58:07Z,sbox02,2677.47,4.5,2625.78,4.7,2658.70,4.5,24-02-07T23:57:59,143
2024-02-08T00:18:08Z,sbox02,2679.59,4.5,2628.09,4.7,2660.32,4.6,24-02-08T00:17:59,1
2024-02-08T00:28:07Z,sbox02,2676.07,4.4,2626.61,4.6,2658.69,4.5,24-02-08T00:27:59,2
2024-02-08T00:38:08Z,sbox02,2676.13,4.4,2625.92,4.5,2658.58,4.4,24-02-08T00:37:59,3
2024-02-08T00:48:08Z,sbox02,2676.82,4.4,2625.42,4.6,2658.73,4.5,24-02-08T00:47:59,4
2024-02-08T00:58:08Z,sbox02,2677.75,4.4,2625.56,4.6,2659.02,4.5,24-02-08T00:57:59,5
2024-02-08T01:18:08Z,sbox02,2676.06,4.3,2626.11,4.5,2658.06,4.5,24-02-08T01:18:00,7
2024-02-08T01:28:08Z,sbox02,2677.35,4.3,2625.89,4.5,2658.39,4.5,24-02-08T01:28:00,8
2024-02-08T01:48:08Z,sbox02,2676.37,4.4,2625.60,4.6,2658.22,4.5,24-02-08T01:48:00,10
2024-02-08T01:58:08Z,sbox02,2677.33,4.4,2625.56,4.6,2658.34,4.6,24-02-08T01:58:00,11
2024-02-08T02:08:08Z,sbox02,2677.32,4.4,2625.79,4.6,2658.45,4.6,24-02-08T02:08:00,12
2024-02-08T02:18:08Z,sbox02,2678.19,4.4,2624.86,4.6,2657.89,4.6,24-02-08T02:18:00,13
2024-02-08T02:28:08Z,sbox02,2677.10,4.4,2625.55,4.6,2658.27,4.6,24-02-08T02:28:00,14
2024-02-08T02:48:08Z,sbox02,2675.87,4.4,2624.72,4.6,2658.32,4.6,24-02-08T02:48:00,16
2024-02-08T02:58:08Z,sbox02,2677.25,4.4,2625.12,4.6,2658.72,4.5,24-02-08T02:58:00,17
2024-02-08T03:08:09Z,sbox02,2675.41,4.4,2625.47,4.6,2658.08,4.5,24-02-08T03:08:00,18
2024-02-08T03:18:09Z,sbox02,2676.43,4.4,2625.63,4.6,2658.07,4.6,24-02-08T03:18:00,19
2024-02-08T03:28:09Z,sbox02,2675.73,4.4,2625.58,4.7,2658.10,4.6,24-02-08T03:28:00,20
2024-02-08T03:38:09Z,sbox02,2675.98,4.4,2625.72,4.6,2657.97,4.6,24-02-08T03:38:01,21
2024-02-08T03:48:09Z,sbox02,2675.80,4.4,2625.89,4.6,2658.03,4.6,24-02-08T03:48:01,22
2024-02-08T03:58:09Z,sbox02,2676.18,4.4,2625.25,4.6,2657.65,4.6,24-02-08T03:58:01,23
2024-02-08T04:18:09Z,sbox02,2676.60,4.4,2625.61,4.6,2658.12,4.5,24-02-08T04:18:01,25
2024-02-08T04:28:09Z,sbox02,2675.24,4.4,2625.46,4.5,2657.49,4.4,24-02-08T04:28:01,26
2024-02-08T04:38:09Z,sbox02,2675.81,4.4,2626.10,4.5,2657.77,4.5,24-02-08T04:38:01,27
2024-02-08T04:48:09Z,sbox02,2675.38,4.4,2625.76,4.6,2657.51,4.5,24-02-08T04:48:01,28
2024-02-08T04:58:09Z,sbox02,2675.16,4.4,2625.04,4.6,2657.86,4.5,24-02-08T04:58:01,29
2024-02-08T05:08:09Z,sbox02,2675.12,4.4,2625.70,4.6,2657.67,4.5,24-02-08T05:08:01,30
2024-02-08T05:18:09Z,sbox02,2676.58,4.4,2625.43,4.6,2657.77,4.5,24-02-08T05:18:01,31
2024-02-08T05:28:09Z,sbox02,2675.24,4.4,2625.75,4.6,2657.97,4.5,24-02-08T05:28:01,32
2024-02-08T05:38:10Z,sbox02,2675.22,4.4,2625.54,4.6,2657.87,4.5,24-02-08T05:38:01,33
2024-02-08T05:48:10Z,sbox02,2675.99,4.4,2625.48,4.5,2658.57,4.4,24-02-08T05:48:01,34
2024-02-08T05:58:10Z,sbox02,2675.23,4.4,2626.96,4.5,2659.15,4.4,24-02-08T05:58:01,35
2024-02-08T06:08:10Z,sbox02,2676.15,4.4,2626.94,4.5,2658.80,4.4,24-02-08T06:08:01,36
2024-02-08T06:18:10Z,sbox02,2678.68,4.4,2627.87,4.5,2658.59,4.5,24-02-08T06:18:02,37
2024-02-08T06:28:10Z,sbox02,2696.95,4.3,2632.92,4.5,2665.04,4.4,24-02-08T06:28:02,38
2024-02-08T06:38:10Z,sbox02,2685.58,4.3,2630.46,4.5,2663.48,4.4,24-02-08T06:38:02,39
2024-02-08T06:58:10Z,sbox02,2682.82,4.3,2630.80,4.5,2664.42,4.4,24-02-08T06:58:02,41
2024-02-08T07:08:10Z,sbox02,2701.73,4.3,2638.65,4.4,2672.75,4.3,24-02-08T07:08:02,42
2024-02-08T07:38:10Z,sbox02,2685.22,4.4,2631.59,4.5,2663.79,4.5,24-02-08T07:38:02,45
2024-02-08T07:48:10Z,sbox02,2682.92,4.4,2630.11,4.6,2663.12,4.6,24-02-08T07:48:02,46
2024-02-08T07:58:10Z,sbox02,2682.18,4.5,2630.38,4.7,2662.91,4.6,24-02-08T07:58:02,47
2024-02-08T08:08:11Z,sbox02,2681.68,4.6,2629.76,4.8,2663.07,4.7,24-02-08T08:08:02,48
2024-02-08T08:18:11Z,sbox02,2681.30,4.6,2629.69,4.8,2662.67,4.8,24-02-08T08:18:02,49
2024-02-08T08:28:11Z,sbox02,2682.29,4.7,2629.51,5.0,2662.83,5.0,24-02-08T08:28:02,50
2024-02-08T08:48:11Z,sbox02,2681.33,5.1,2630.09,5.3,2662.94,5.3,24-02-08T08:48:03,52
2024-02-08T08:58:11Z,sbox02,2680.68,5.2,2628.99,5.5,2662.66,5.5,24-02-08T08:58:03,53
2024-02-08T09:08:11Z,sbox02,2680.71,5.3,2629.14,5.6,2662.49,5.7,24-02-08T09:08:03,54
2024-02-08T09:28:11Z,sbox02,2678.92,5.4,2628.74,5.7,2662.11,5.8,24-02-08T09:28:03,56
2024-02-08T09:38:11Z,sbox02,2679.81,5.4,2628.71,5.7,2662.50,5.9,24-02-08T09:38:03,57
2024-02-08T09:48:11Z,sbox02,2679.99,5.5,2628.51,5.7,2662.69,5.9,24-02-08T09:48:03,58
2024-02-08T10:08:11Z,sbox02,2688.92,5.5,2630.24,5.7,2665.31,5.9,24-02-08T10:08:03,60
2024-02-08T10:18:11Z,sbox02,2690.53,5.5,2632.42,5.7,2665.55,5.9,24-02-08T10:18:03,61
2024-02-08T10:28:11Z,sbox02,2697.16,5.5,2635.00,5.7,2667.68,5.9,24-02-08T10:28:03,62
2024-02-08T10:38:11Z,sbox02,2700.33,5.5,2638.59,5.7,2668.61,5.9,24-02-08T10:38:03,63
2024-02-08T10:48:12Z,sbox02,2694.23,5.6,2635.42,5.8,2665.97,5.9,24-02-08T10:48:03,64
2024-02-08T11:08:12Z,sbox02,2696.74,5.6,2636.96,5.8,2667.79,6.0,24-02-08T11:08:03,66
2024-02-08T11:18:12Z,sbox02,2696.95,5.7,2636.74,5.9,2667.90,6.1,24-02-08T11:18:04,67
2024-02-08T11:28:12Z,sbox02,2700.25,5.7,2638.18,5.9,2668.76,6.1,24-02-08T11:28:04,68
2024-02-08T11:38:12Z,sbox02,2699.07,5.8,2640.65,6.0,2671.37,6.1,24-02-08T11:38:04,69
2024-02-08T11:48:12Z,sbox02,2696.54,5.9,2638.74,6.1,2668.96,6.2,24-02-08T11:48:04,70
2024-02-08T11:58:12Z,sbox02,2693.54,6.0,2636.29,6.2,2665.44,6.4,24-02-08T11:58:04,71
2024-02-08T12:08:12Z,sbox02,2689.86,6.2,2634.17,6.4,2665.36,6.5,24-02-08T12:08:04,72
2024-02-08T12:18:12Z,sbox02,2687.20,6.3,2632.91,6.5,2664.00,6.6,24-02-08T12:18:04,73
2024-02-08T12:28:12Z,sbox02,2685.90,6.3,2632.17,6.5,2663.18,6.7,24-02-08T12:28:04,74
2024-02-08T12:38:12Z,sbox02,2685.40,6.4,2631.83,6.6,2663.53,6.8,24-02-08T12:38:04,75
2024-02-08T12:48:12Z,sbox02,2685.87,6.5,2631.60,6.8,2663.02,6.8,24-02-08T12:48:04,76
2024-02-08T12:58:12Z,sbox02,2683.25,6.7,2631.37,6.9,2662.49,7.0,24-02-08T12:58:04,77
2024-02-08T13:08:12Z,sbox02,2684.85,6.7,2631.67,7.0,2663.82,7.1,24-02-08T13:08:04,78
2024-02-08T13:18:13Z,sbox02,2688.25,6.7,2632.23,6.9,2664.11,7.0,24-02-08T13:18:04,79
2024-02-08T13:28:13Z,sbox02,2686.01,6.7,2631.51,6.9,2663.67,7.1,24-02-08T13:28:04,80
2024-02-08T13:48:13Z,sbox02,2686.88,7.0,2631.09,7.3,2662.20,7.4,24-02-08T13:48:04,82
2024-02-08T14:08:13Z,sbox02,2688.27,7.2,2630.56,7.3,2663.40,7.5,24-02-08T14:08:05,84
2024-02-08T14:28:13Z,sbox02,2688.63,7.2,2631.33,7.4,2663.22,7.5,24-02-08T14:28:05,86
2024-02-08T14:38:13Z,sbox02,2691.35,7.2,2631.86,7.4,2664.92,7.5,24-02-08T14:38:05,87
2024-02-08T14:48:13Z,sbox02,2694.24,7.3,2633.73,7.4,2666.09,7.5,24-02-08T14:48:05,88
2024-02-08T14:58:13Z,sbox02,2689.13,7.3,2632.96,7.5,2664.42,7.5,24-02-08T14:58:05,89
2024-02-08T15:08:13Z,sbox02,2686.02,7.4,2631.39,7.5,2663.50,7.5,24-02-08T15:08:05,90
2024-02-08T15:18:13Z,sbox02,2686.72,7.4,2631.39,7.6,2662.87,7.6,24-02-08T15:18:05,91
2024-02-08T15:28:13Z,sbox02,2687.25,7.5,2631.16,7.7,2663.74,7.7,24-02-08T15:28:05,92
2024-02-08T15:38:13Z,sbox02,2689.90,7.6,2632.05,7.7,2663.69,7.7,24-02-08T15:38:05,93
2024-02-08T15:48:14Z,sbox02,2688.65,7.6,2631.22,7.8,2663.72,7.7,24-02-08T15:48:05,94
2024-02-08T15:58:14Z,sbox02,2686.32,7.7,2631.02,7.8,2661.75,7.8,24-02-08T15:58:05,95
2024-02-08T16:08:14Z,sbox02,2684.62,7.7,2630.39,7.8,2661.67,7.8,24-02-08T16:08:05,96
2024-02-08T16:18:14Z,sbox02,2684.57,7.8,2630.01,7.9,2660.83,7.8,24-02-08T16:18:05,97
2024-02-08T16:28:14Z,sbox02,2682.48,7.8,2630.11,7.9,2660.95,7.9,24-02-08T16:28:06,98
2024-02-08T16:38:14Z,sbox02,2681.76,7.9,2629.50,8.0,2660.50,7.9,24-02-08T16:38:06,99
2024-02-08T17:28:14Z,sbox02,2680.36,8.6,2629.19,8.7,2660.50,8.4,24-02-08T17:28:06,104
2024-02-08T17:38:14Z,sbox02,2680.87,8.8,2629.21,8.8,2659.92,8.5,24-02-08T17:38:06,105
2024-02-08T17:48:14Z,sbox02,2681.27,8.9,2629.39,8.9,2659.82,8.6,24-02-08T17:48:06,106
2024-02-08T17:58:14Z,sbox02,2679.73,9.0,2628.82,9.0,2660.68,8.7,24-02-08T17:58:06,107
2024-02-08T18:38:15Z,sbox02,2679.52,9.2,2628.53,9.2,2659.11,8.9,24-02-08T18:38:06,111
2024-02-08T18:48:15Z,sbox02,2679.71,9.2,2627.96,9.2,2659.62,9.0,24-02-08T18:48:06,112
2024-02-08T18:58:15Z,sbox02,2679.65,9.3,2628.96,9.2,2659.46,9.0,24-02-08T18:58:06,113
2024-02-08T19:08:15Z,sbox02,2679.43,9.3,2628.77,9.3,2660.60,9.1,24-02-08T19:08:07,114
2024-02-08T19:18:15Z,sbox02,2678.71,9.3,2628.99,9.2,2659.55,9.1,24-02-08T19:18:07,115
2024-02-08T19:28:15Z,sbox02,2678.15,9.3,2628.97,9.2,2658.90,9.1,24-02-08T19:28:07,116
2024-02-08T19:48:15Z,sbox02,2677.61,9.3,2628.26,9.2,2659.27,9.1,24-02-08T19:48:07,118
2024-02-08T19:58:15Z,sbox02,2686.48,9.3,2629.92,9.3,2661.99,9.2,24-02-08T19:58:07,119
2024-02-08T20:08:15Z,sbox02,2686.25,9.3,2629.60,9.3,2661.32,9.2,24-02-08T20:08:07,120
2024-02-08T20:28:15Z,sbox02,2683.59,9.3,2629.35,9.3,2661.40,9.2,24-02-08T20:28:07,122
2024-02-08T20:38:15Z,sbox02,2686.71,9.3,2629.95,9.3,2662.33,9.2,24-02-08T20:38:07,123
2024-02-08T20:58:15Z,sbox02,2685.53,9.3,2629.95,9.2,2661.57,9.2,24-02-08T20:58:07,125
2024-02-08T21:08:16Z,sbox02,2685.67,9.2,2630.23,9.2,2662.07,9.2,24-02-08T21:08:07,126
2024-02-08T21:18:16Z,sbox02,2685.94,9.2,2630.69,9.2,2662.52,9.2,24-02-08T21:18:07,127
2024-02-08T21:28:16Z,sbox02,2685.70,9.2,2630.43,9.2,2662.00,9.3,24-02-08T21:28:07,128
2024-02-08T21:38:16Z,sbox02,2687.27,9.2,2631.44,9.2,2663.61,9.2,24-02-08T21:38:07,129
2024-02-08T21:48:16Z,sbox02,2686.98,9.2,2631.02,9.1,2663.55,9.2,24-02-08T21:48:08,130
2024-02-08T22:08:16Z,sbox02,2686.21,9.1,2630.78,9.0,2661.14,9.1,24-02-08T22:08:08,132
2024-02-08T22:18:16Z,sbox02,2683.99,9.0,2630.28,9.0,2659.94,9.1,24-02-08T22:18:08,133
2024-02-08T22:28:16Z,sbox02,2685.08,9.0,2629.86,8.9,2660.79,9.0,24-02-08T22:28:08,134
2024-02-08T22:38:16Z,sbox02,2683.76,9.0,2629.69,9.0,2661.72,9.0,24-02-08T22:38:08,135
2024-02-08T22:58:16Z,sbox02,2684.13,9.0,2629.09,8.9,2660.00,9.0,24-02-08T22:58:08,137
2024-02-08T23:08:16Z,sbox02,2685.72,9.0,2630.21,8.9,2659.95,9.0,24-02-08T23:08:08,138
2024-02-08T23:28:16Z,sbox02,2682.87,9.0,2629.56,8.9,2658.94,9.0,24-02-08T23:28:08,140
2024-02-08T23:38:17Z,sbox02,2683.31,9.0,2628.75,8.9,2658.52,9.0,24-02-08T23:38:08,141
2024-02-08T23:48:17Z,sbox02,2688.05,9.0,2630.77,8.9,2660.67,9.0,24-02-08T23:48:08,142
2024-02-08T23:58:17Z,sbox02,2691.64,9.0,2632.74,8.9,2663.53,9.0,24-02-08T23:58:08,143
2024-02-09T00:18:17Z,sbox02,2695.82,9.1,2640.03,9.1,2667.52,9.1,24-02-09T00:18:09,1
2024-02-09T00:28:17Z,sbox02,2693.59,9.1,2634.37,9.1,2662.93,9.2,24-02-09T00:28:09,2
2024-02-09T00:38:17Z,sbox02,2694.70,9.2,2635.30,9.1,2664.24,9.2,24-02-09T00:38:09,3
2024-02-09T00:48:17Z,sbox02,2694.37,9.2,2635.80,9.2,2664.93,9.2,24-02-09T00:48:09,4
2024-02-09T00:58:17Z,sbox02,2693.12,9.2,2635.14,9.1,2664.85,9.2,24-02-09T00:58:09,5
2024-02-09T01:08:17Z,sbox02,2691.20,9.1,2633.19,9.1,2662.03,9.2,24-02-09T01:08:09,6
2024-02-09T01:18:18Z,sbox02,2686.69,9.1,2630.91,9.1,2660.20,9.1,24-02-09T01:18:09,7
2024-02-09T01:28:18Z,sbox02,2684.94,9.1,2630.20,9.0,2659.92,9.1,24-02-09T01:28:09,8
2024-02-09T02:08:18Z,sbox02,2681.77,9.1,2629.18,9.1,2659.92,9.1,24-02-09T02:08:10,12
2024-02-09T02:18:18Z,sbox02,2682.85,9.1,2628.62,9.1,2659.10,9.1,24-02-09T02:18:10,13
2024-02-09T02:38:18Z,sbox02,2683.47,9.1,2629.24,9.1,2659.62,9.1,24-02-09T02:38:10,15
2024-02-09T02:58:18Z,sbox02,2682.48,9.0,2628.78,9.0,2659.16,9.1,24-02-09T02:58:10,17
2024-02-09T03:08:18Z,sbox02,2682.09,9.0,2628.64,9.0,2658.61,9.1,24-02-09T03:08:10,18
2024-02-09T03:18:18Z,sbox02,2682.13,9.0,2628.91,9.0,2660.48,9.1,24-02-09T03:18:10,19
2024-02-09T03:38:18Z,sbox02,2685.62,9.0,2630.06,9.0,2660.88,9.1,24-02-09T03:38:10,21
2024-02-09T03:48:18Z,sbox02,2688.52,9.0,2631.34,9.0,2663.72,9.1,24-02-09T03:48:10,22
2024-02-09T03:58:19Z,sbox02,2691.67,9.0,2633.31,9.1,2664.70,9.1,24-02-09T03:58:10,23
2024-02-09T04:08:19Z,sbox02,2690.67,9.0,2632.48,9.1,2663.91,9.1,24-02-09T04:08:10,24
2024-02-09T04:18:19Z,sbox02,2687.81,9.0,2632.19,9.0,2663.56,9.1,24-02-09T04:18:10,25
2024-02-09T04:28:19Z,sbox02,2694.21,9.0,2634.74,9.0,2666.32,9.1,24-02-09T04:28:10,26
2024-02-09T04:48:19Z,sbox02,2684.92,9.0,2630.04,9.0,2661.46,9.1,24-02-09T04:48:11,28
2024-02-09T04:58:19Z,sbox02,2683.35,9.0,2629.48,9.0,2659.83,9.1,24-02-09T04:58:11,29
2024-02-09T05:08:19Z,sbox02,2681.98,9.0,2630.18,9.1,2660.37,9.1,24-02-09T05:08:11,30
2024-02-09T05:18:19Z,sbox02,2682.57,9.0,2628.61,9.0,2659.54,9.1,24-02-09T05:18:11,31
2024-02-09T05:28:19Z,sbox02,2681.35,9.1,2628.30,9.1,2659.61,9.1,24-02-09T05:28:11,32
2024-02-09T05:38:19Z,sbox02,2682.55,9.1,2629.36,9.1,2660.32,9.2,24-02-09T05:38:11,33
2024-02-09T05:48:19Z,sbox02,2684.87,9.1,2629.63,9.1,2660.68,9.2,24-02-09T05:48:11,34
2024-02-09T06:08:19Z,sbox02,2682.70,9.2,2628.95,9.2,2660.07,9.2,24-02-09T06:08:11,36
2024-02-09T06:18:19Z,sbox02,2682.21,9.0,2628.35,9.0,2659.66,9.0,24-02-09T06:18:11,37
2024-02-09T06:38:20Z,sbox02,2680.20,8.7,2628.55,8.6,2658.79,8.6,24-02-09T06:38:11,39
2024-02-09T06:48:20Z,sbox02,2679.07,8.8,2628.38,8.8,2659.56,8.8,24-02-09T06:48:11,40
2024-02-09T06:58:20Z,sbox02,2678.77,9.0,2628.62,9.0,2659.22,9.0,24-02-09T06:58:11,41
2024-02-09T07:18:20Z,sbox02,2679.31,9.1,2628.04,9.2,2659.07,9.2,24-02-09T07:18:11,43
2024-02-09T07:38:20Z,sbox02,2679.76,9.2,2628.01,9.3,2660.46,9.3,24-02-09T07:38:12,45
2024-02-09T07:58:20Z,sbox02,2678.02,9.3,2627.98,9.4,2659.43,9.4,24-02-09T07:58:12,47
2024-02-09T08:08:20Z,sbox02,2677.50,9.4,2627.57,9.4,2659.23,9.4,24-02-09T08:08:12,48
2024-02-09T08:18:20Z,sbox02,2677.64,9.4,2627.92,9.5,2659.05,9.5,24-02-09T08:18:12,49
2024-02-09T08:28:20Z,sbox02,2678.40,9.5,2627.89,9.6,2659.17,9.6,24-02-09T08:28:12,50
2024-02-09T08:38:20Z,sbox02,2679.01,9.6,2627.54,9.6,2659.21,9.7,24-02-09T08:38:12,51
2024-02-09T08:48:20Z,sbox02,2677.83,9.7,2627.02,9.7,2658.85,9.7,24-02-09T08:48:12,52
2024-02-09T09:08:20Z,sbox02,2676.95,9.8,2626.48,9.9,2658.58,9.9,24-02-09T09:08:12,54
2024-02-09T09:18:21Z,sbox02,2677.89,9.9,2626.95,10.0,2659.00,10.0,24-02-09T09:18:12,55
2024-02-09T09:38:21Z,sbox02,2677.97,10.1,2626.51,10.2,2658.66,10.2,24-02-09T09:38:12,57
2024-02-09T09:48:21Z,sbox02,2676.74,10.2,2626.12,10.2,2658.52,10.3,24-02-09T09:48:12,58
2024-02-09T09:58:21Z,sbox02,2677.21,10.2,2625.69,10.3,2658.71,10.3,24-02-09T09:58:13,59
2024-02-09T10:08:21Z,sbox02,2676.10,10.2,2626.02,10.3,2658.84,10.4,24-02-09T10:08:13,60
2024-02-09T10:18:21Z,sbox02,2677.30,10.3,2626.13,10.3,2658.73,10.4,24-02-09T10:18:13,61
2024-02-09T10:28:21Z,sbox02,2676.55,10.3,2626.10,10.4,2658.32,10.4,24-02-09T10:28:13,62
2024-02-09T10:38:21Z,sbox02,2676.30,10.3,2625.85,10.4,2658.13,10.4,24-02-09T10:38:13,63
2024-02-09T10:48:21Z,sbox02,2674.94,10.3,2625.47,10.4,2657.35,10.4,24-02-09T10:48:13,64
2024-02-09T10:58:21Z,sbox02,2675.17,10.3,2625.56,10.4,2657.89,10.5,24-02-09T10:58:13,65
2024-02-09T11:18:21Z,sbox02,2676.21,10.5,2624.96,10.6,2657.87,10.7,24-02-09T11:18:13,67
2024-02-09T11:28:21Z,sbox02,2675.48,10.5,2624.68,10.6,2657.42,10.7,24-02-09T11:28:13,68
2024-02-09T11:38:22Z,sbox02,2675.83,10.5,2624.85,10.6,2656.32,10.7,24-02-09T11:38:13,69
2024-02-09T11:48:22Z,sbox02,2675.54,10.5,2624.55,10.6,2657.17,10.7,24-02-09T11:48:13,70
2024-02-09T11:58:22Z,sbox02,2674.98,10.6,2624.28,10.6,2656.64,10.8,24-02-09T11:58:13,71
2024-02-09T12:08:22Z,sbox02,2675.40,10.6,2624.21,10.7,2656.92,10.8,24-02-09T12:08:13,72
2024-02-09T12:18:22Z,sbox02,2675.07,10.6,2624.57,10.6,2656.03,10.8,24-02-09T12:18:13,73
2024-02-09T12:28:22Z,sbox02,2675.35,10.6,2624.71,10.6,2655.68,10.8,24-02-09T12:28:14,74
2024-02-09T12:38:22Z,sbox02,2674.42,10.9,2625.01,10.9,2655.47,11.1,24-02-09T12:38:14,75
2024-02-09T12:48:22Z,sbox02,2674.62,11.1,2624.44,11.1,2655.59,11.4,24-02-09T12:48:14,76
2024-02-09T12:58:22Z,sbox02,2674.18,11.1,2624.61,11.2,2655.88,11.4,24-02-09T12:58:14,77
2024-02-09T13:08:22Z,sbox02,2675.02,11.2,2624.80,11.2,2654.63,11.5,24-02-09T13:08:14,78
2024-02-09T13:18:22Z,sbox02,2674.57,11.1,2623.83,11.2,2654.51,11.4,24-02-09T13:18:14,79
2024-02-09T13:38:22Z,sbox02,2674.38,11.2,2623.69,11.3,2654.59,11.5,24-02-09T13:38:14,81
2024-02-09T13:48:22Z,sbox02,2675.07,11.2,2623.51,11.3,2654.14,11.5,24-02-09T13:48:14,82
2024-02-09T13:58:22Z,sbox02,2675.61,11.2,2623.77,11.4,2653.76,11.5,24-02-09T13:58:14,83
2024-02-09T14:08:23Z,sbox02,2674.90,11.4,2623.60,11.6,2652.65,11.7,24-02-09T14:08:14,84
2024-02-09T14:18:23Z,sbox02,2675.48,11.5,2623.54,11.7,2652.44,11.8,24-02-09T14:18:14,85
2024-02-09T14:38:23Z,sbox02,2674.95,11.5,2624.04,11.6,2652.93,11.7,24-02-09T14:38:14,87
2024-02-09T14:48:23Z,sbox02,2675.36,11.4,2623.10,11.5,2652.82,11.7,24-02-09T14:48:14,88
2024-02-09T14:58:23Z,sbox02,2674.45,11.3,2622.50,11.4,2651.40,11.6,24-02-09T14:58:15,89
2024-02-09T15:08:23Z,sbox02,2674.43,11.2,2623.02,11.2,2652.31,11.5,24-02-09T15:08:15,90
2024-02-09T15:18:23Z,sbox02,2674.40,11.2,2622.40,11.2,2651.48,11.4,24-02-09T15:18:15,91
2024-02-09T15:28:23Z,sbox02,2673.69,11.2,2622.45,11.2,2651.20,11.4,24-02-09T15:28:15,92
2024-02-09T15:38:23Z,sbox02,2673.23,11.1,2621.99,11.1,2651.45,11.3,24-02-09T15:38:15,93
2024-02-09T15:48:23Z,sbox02,2674.34,11.1,2623.01,11.1,2650.83,11.3,24-02-09T15:48:15,94
2024-02-09T15:58:23Z,sbox02,2673.56,11.0,2622.48,11.0,2649.97,11.1,24-02-09T15:58:15,95
2024-02-09T16:28:23Z,sbox02,2673.43,10.5,2621.61,10.4,2650.07,10.5,24-02-09T16:28:15,98
2024-02-09T16:38:24Z,sbox02,2673.86,10.2,2621.16,10.1,2649.18,10.3,24-02-09T16:38:15,99
2024-02-09T16:48:24Z,sbox02,2673.54,10.0,2620.64,9.9,2649.08,10.1,24-02-09T16:48:15,100
2024-02-09T17:08:24Z,sbox02,2674.57,9.8,2620.84,9.6,2649.35,9.8,24-02-09T17:08:15,102
2024-02-09T17:18:24Z,sbox02,2674.08,9.8,2621.08,9.6,2649.51,9.8,24-02-09T17:18:15,103
2024-02-09T17:28:24Z,sbox02,2674.02,9.8,2620.63,9.6,2649.43,9.8,24-02-09T17:28:15,104
2024-02-09T17:48:24Z,sbox02,2675.50,9.8,2621.47,9.7,2649.32,9.8,24-02-09T17:48:16,106
2024-02-09T18:08:24Z,sbox02,2675.27,9.8,2621.32,9.7,2649.58,9.8,24-02-09T18:08:16,108
2024-02-09T18:28:24Z,sbox02,2673.89,10.1,2621.70,10.0,2648.98,10.1,24-02-09T18:28:16,110
2024-02-09T18:48:24Z,sbox02,2675.13,9.9,2621.00,9.8,2648.83,10.0,24-02-09T18:48:16,112
2024-02-09T18:58:24Z,sbox02,2673.77,9.9,2621.20,9.7,2649.13,9.9,24-02-09T18:58:16,113
2024-02-09T19:18:24Z,sbox02,2674.83,9.7,2621.06,9.6,2649.52,9.7,24-02-09T19:18:16,115
2024-02-09T19:28:25Z,sbox02,2675.02,9.7,2620.71,9.5,2650.00,9.7,24-02-09T19:28:16,116
2024-02-09T19:38:25Z,sbox02,2675.17,9.6,2621.06,9.5,2649.71,9.7,24-02-09T19:38:16,117
2024-02-09T19:48:25Z,sbox02,2674.95,9.5,2620.89,9.4,2650.14,9.6,24-02-09T19:48:16,118
2024-02-09T19:58:25Z,sbox02,2675.46,9.6,2620.79,9.4,2649.75,9.6,24-02-09T19:58:16,119
2024-02-09T20:18:25Z,sbox02,2674.47,9.6,2620.66,9.5,2649.48,9.6,24-02-09T20:18:16,121
2024-02-09T20:28:25Z,sbox02,2675.39,9.7,2621.03,9.6,2649.31,9.7,24-02-09T20:28:17,122
2024-02-09T20:38:25Z,sbox02,2674.90,9.7,2621.68,9.6,2649.41,9.7,24-02-09T20:38:17,123
2024-02-09T21:08:25Z,sbox02,2674.69,9.9,2620.52,9.9,2649.54,9.9,24-02-09T21:08:17,126
2024-02-09T21:18:25Z,sbox02,2674.44,10.1,2621.32,10.1,2649.82,10.1,24-02-09T21:18:17,127
2024-02-09T21:28:25Z,sbox02,2675.48,10.3,2621.23,10.3,2649.53,10.2,24-02-09T21:28:17,128
2024-02-09T21:38:25Z,sbox02,2674.62,10.3,2620.44,10.3,2650.33,10.3,24-02-09T21:38:17,129
2024-02-09T21:48:25Z,sbox02,2674.75,10.3,2621.01,10.3,2650.65,10.3,24-02-09T21:48:17,130
2024-02-09T21:58:26Z,sbox02,2675.09,10.3,2620.47,10.3,2650.09,10.3,24-02-09T21:58:17,131
2024-02-09T22:18:26Z,sbox02,2674.87,10.2,2623.28,10.2,2651.03,10.3,24-02-09T22:18:17,133
2024-02-09T22:28:26Z,sbox02,2676.55,10.2,2627.15,10.2,2656.40,10.3,24-02-09T22:28:17,134
2024-02-09T22:38:26Z,sbox02,2690.88,10.2,2629.40,10.3,2659.40,10.3,24-02-09T22:38:17,135
2024-02-09T22:48:26Z,sbox02,2689.95,10.2,2630.38,10.3,2660.52,10.3,24-02-09T22:48:17,136
2024-02-09T22:58:26Z,sbox02,2685.14,10.2,2628.90,10.3,2659.06,10.3,24-02-09T22:58:18,137
2024-02-09T23:08:26Z,sbox02,2688.43,10.2,2629.34,10.3,2660.46,10.3,24-02-09T23:08:18,138
2024-02-09T23:28:26Z,sbox02,2686.01,10.2,2629.26,10.2,2659.68,10.3,24-02-09T23:28:18,140
2024-02-09T23:38:26Z,sbox02,2679.89,10.2,2627.34,10.2,2658.65,10.3,24-02-09T23:38:18,141
2024-02-09T23:48:26Z,sbox02,2679.87,10.2,2627.17,10.2,2659.75,10.3,24-02-09T23:48:18,142
2024-02-09T23:58:26Z,sbox02,2684.44,10.2,2628.60,10.2,2660.27,10.3,24-02-09T23:58:18,143
2024-02-10T00:18:27Z,sbox02,2678.20,10.1,2629.47,10.1,2660.56,10.2,24-02-10T00:18:18,1
2024-02-10T00:28:27Z,sbox02,2676.01,10.1,2625.63,10.1,2657.18,10.2,24-02-10T00:28:19,2
2024-02-10T00:48:27Z,sbox02,2676.04,10.1,2624.81,10.1,2656.52,10.2,24-02-10T00:48:19,4
2024-02-10T00:58:27Z,sbox02,2677.06,10.0,2624.57,10.1,2656.43,10.1,24-02-10T00:58:19,5
2024-02-10T01:08:27Z,sbox02,2674.97,10.0,2624.45,10.1,2656.05,10.1,24-02-10T01:08:19,6
2024-02-10T01:18:27Z,sbox02,2678.31,10.0,2625.37,10.1,2656.65,10.1,24-02-10T01:18:19,7
2024-02-10T01:28:27Z,sbox02,2676.56,10.0,2625.60,10.0,2656.18,10.1,24-02-10T01:28:19,8
2024-02-10T01:48:27Z,sbox02,2675.48,9.9,2624.94,9.9,2656.33,10.0,24-02-10T01:48:19,10
2024-02-10T01:58:27Z,sbox02,2675.15,9.9,2624.80,9.9,2655.51,10.0,24-02-10T01:58:19,11
2024-02-10T02:08:27Z,sbox02,2676.09,9.9,2625.07,9.9,2655.74,10.0,24-02-10T02:08:19,12
2024-02-10T02:18:27Z,sbox02,2675.19,9.8,2624.32,9.9,2655.51,9.9,24-02-10T02:18:19,13
2024-02-10T02:28:28Z,sbox02,2675.79,9.8,2624.40,9.8,2655.22,9.9,24-02-10T02:28:19,14
2024-02-10T02:38:28Z,sbox02,2675.72,9.7,2623.93,9.8,2656.02,9.8,24-02-10T02:38:19,15
2024-02-10T02:48:28Z,sbox02,2675.93,9.6,2624.01,9.7,2655.73,9.7,24-02-10T02:48:19,16
2024-02-10T03:08:28Z,sbox02,2674.19,9.1,2623.50,9.1,2654.77,9.2,24-02-10T03:08:19,18
2024-02-10T03:28:28Z,sbox02,2673.89,8.7,2623.82,8.7,2655.09,8.7,24-02-10T03:28:20,20